Tracking 26442 objects as of 7-Dec-2022
HD Live streaming from Space Station
objects crossing your sky now

NOAA 16 DEB

Track NOAA 16 DEB now!
10-day predictions


NORAD ID: 41539
Int'l Code: 2000-055NP
Perigee: 803.9 km
Apogee: 841.6 km
Inclination: 98.8 °
Period: 101.2 minutes
Semi major axis: 7193 km
RCS: Unknown
Launch date: September 21, 2000
Source: United States (US)
Launch site: AIR FORCE WESTERN TEST RANGE (AFWTR)

Note: This is SATELLITE DEBRIS
aabbcc
Your satellite tracking list
Your tracking list is empty




NASA's NSSDC Master Catalog

Two Line Element Set (TLE):
1 41539U 00055NP  22340.50742035  .00003414  00000-0  15331-2 0  9996
2 41539  98.8004  75.3609 0026257 295.2243  64.6213 14.22885135353622
Source of the keplerian elements: AFSPC